フルス彗星

C/2021 Q4 ( Fuls )

English version
Home page
Updated on February 27, 2024

---------------------------------------------------------------------

・ プロフィール

発見日 2021年8月26日
発見光度 20.0等
発見者 David Carson Fuls (Mt. Lemmon)

・ 写真集

・ 軌道要素

Epoch 2023 Sept. 13.0 TT = JDT 2460200.5
T 2023 June 10.90509 TT                                 Rudenko
q   7.5647499            (2000.0)            P               Q
z  -0.0004139      Peri.  147.02982     +0.84758352     +0.52779348
 +/-0.0000027      Node   183.33149     -0.31888495     +0.58957324
e   1.0031308      Incl.   71.47592     +0.42416338     -0.61142247
>From 425 observations 2020 May 19-2023 Dec. 8, mean residual 0".6.

・ 光度変化

        m1 = -5.5 + 5 logΔ + 22.0 log r

---------------------------------------------------------------------

軌道要素はM.P.E.C. 2023-X256に掲載されたものです。
光度グラフはComet for Windowsで作成したものです。

---------------------------------------------------------------------

Copyright(C) Seiichi Yoshida (comet@aerith.net). All rights reserved.